Weather History for Shreveport, LA

Change the Weather History Date:

Saturday, January 18, 2014

  Actual Average Record
Temperature  
Mean Temperature 48 °F 47 °F  
Max Temperature 67 °F 57 °F 78 °F (1938)
Min Temperature 29 °F 36 °F -2 °F (1930)
Degree Days  
Heating Degree Days 17 18  
Month to date heating degree days 373 341  
Since 1 July heating degree days 1343 1243  
Cooling Degree Days 0 0  
Month to date cooling degree days 0 0  
Year to date cooling degree days 0 0  
Moisture  
Dew Point 24 °F    
Average Humidity 44    
Maximum Humidity 69    
Minimum Humidity 18    
Precipitation  
Precipitation 0.00 in 0.14 in 2.63 in (1945)
Month to date precipitation 0.82 2.31  
Year to date precipitation 0.82 2.31  
Snow  
Snow 0.00 in - - ()
Month to date snowfall 0.0  
Since 1 July snowfall T  
Snow Depth 0.00 in    
Sea Level Pressure  
Sea Level Pressure 30.12 in    
Wind  
Wind Speed 10 mph (SW)    
Max Wind Speed 26 mph    
Max Gust Speed 33 mph    
Visibility 10 miles    
Events      
T = Trace of Precipitation, MM = Missing Value Source: NWS Daily Summary

Daily Weather History Graph

Daily Weather History Graph

Search for Another Location

Airport:

Trip Planner

Search our weather history database for the weather conditions in past years. The results will help you decide how hot, cold, wet, or windy it might be!

Date:

Astronomy

Jan. 18, 2014 Rise Set
Actual Time 7:16 AM CST 5:35 PM CST
Civil Twilight 6:49 AM CST 6:01 PM CST
Nautical Twilight 6:19 AM CST 6:31 PM CST
Astronomical Twilight 5:50 AM CST 7:01 PM CST
Moon 8:06 PM CST (1/18) 8:26 AM CST (1/18)
Length of Visible Light 11h 12m
Length of Day
10h 19m
Waning Gibbous, 94% of the Moon is Illuminated
Jan 18
Waning Gibbous
Jan 23
Last Quarter
Jan 30
New
Feb 6
First Quarter
Feb 14
Full

Hourly Weather History & Observations

Time (CST) Temp. Windchill Dew Point Humidity Pressure Visibility Wind Dir Wind Speed Gust Speed Precip Events Conditions
12:56 AM 32.0 °F - 19.9 °F 61% 30.24 in 10.0 mi Calm Calm - N/A   Mostly Cloudy
1:56 AM 28.9 °F - 19.9 °F 69% 30.24 in 10.0 mi Calm Calm - N/A   Mostly Cloudy
2:56 AM 30.9 °F - 19.0 °F 61% 30.23 in 10.0 mi Calm Calm - N/A   Partly Cloudy
3:56 AM 32.0 °F 28.7 °F 19.0 °F 59% 30.21 in 10.0 mi South 3.5 mph - N/A   Clear
4:56 AM 34.0 °F 26.6 °F 18.0 °F 52% 30.19 in 10.0 mi SSW 9.2 mph - N/A   Clear
5:56 AM 34.0 °F 28.0 °F 17.1 °F 50% 30.19 in 10.0 mi SSW 6.9 mph - N/A   Clear
6:56 AM 35.1 °F 29.3 °F 17.1 °F 48% 30.18 in 10.0 mi South 6.9 mph - N/A   Clear
7:56 AM 36.0 °F 29.6 °F 19.0 °F 50% 30.18 in 10.0 mi South 8.1 mph - N/A   Clear
8:56 AM 42.1 °F 36.1 °F 18.0 °F 38% 30.19 in 10.0 mi SSW 10.4 mph - N/A   Clear
9:56 AM 51.1 °F - 18.0 °F 27% 30.19 in 10.0 mi SW 11.5 mph - N/A   Clear
10:56 AM 55.9 °F - 19.0 °F 24% 30.18 in 10.0 mi SW 18.4 mph 24.2 mph N/A   Partly Cloudy
11:56 AM 60.1 °F - 19.9 °F 21% 30.14 in 10.0 mi SW 20.7 mph 27.6 mph N/A   Partly Cloudy
12:56 PM 64.0 °F - 21.9 °F 20% 30.09 in 10.0 mi WSW 18.4 mph 24.2 mph N/A   Partly Cloudy
1:56 PM 66.0 °F - 21.9 °F 19% 30.05 in 10.0 mi West 18.4 mph 29.9 mph N/A   Clear
2:56 PM 66.0 °F - 23.0 °F 20% 30.04 in 10.0 mi WSW 19.6 mph 27.6 mph N/A   Clear
3:56 PM 66.0 °F - 24.1 °F 20% 30.01 in 10.0 mi WSW 15.0 mph 24.2 mph N/A   Clear
4:56 PM 64.0 °F - 24.1 °F 22% 30.01 in 10.0 mi WSW 10.4 mph - N/A   Partly Cloudy
5:56 PM 57.9 °F - 26.1 °F 30% 30.03 in 10.0 mi WSW 6.9 mph - N/A   Partly Cloudy
6:56 PM 55.9 °F - 28.0 °F 34% 30.04 in 10.0 mi WSW 6.9 mph - N/A   Clear
7:56 PM 57.0 °F - 30.9 °F 37% 30.03 in 10.0 mi WSW 13.8 mph - N/A   Clear
8:56 PM 54.0 °F - 34.0 °F 47% 30.06 in 10.0 mi WSW 8.1 mph - N/A   Clear
9:56 PM 51.1 °F - 36.0 °F 56% 30.08 in 10.0 mi WNW 5.8 mph - N/A   Partly Cloudy
10:56 PM 53.1 °F - 35.1 °F 50% 30.10 in 10.0 mi West 10.4 mph - N/A   Partly Cloudy
11:56 PM 50.0 °F - 35.1 °F 57% 30.10 in 10.0 mi WNW 6.9 mph - N/A   Clear